WB4E-13 Weather Reports


time (UTC)temp
C
wind
direction
speed
KPH
gust
KPH
rain 1hr
cm
rain 24hr
cm
rain mn
cm
humidity
%
barometer
mb
20260504005304 16 180 0.0 0.0 0.00 0.00 0.00 49 1013.6
20260504001334 17 40 0.0 1.6 0.00 0.00 0.00 45 1013.6
20260504000334 17 40 0.0 1.6 0.00 0.00 0.00 44 1013.6
20260503235334 17 40 0.0 3.2 0.00 0.00 0.00 43 1013.7
20260503234334 17 40 1.6 3.2 0.00 0.00 0.00 42 1013.8
20260503233337 17 33 1.6 3.2 0.00 0.00 0.00 42 1013.9
20260503232336 18 58 0.0 1.6 0.00 0.00 0.00 41 1014.0
20260503231639 18 272 1.6 3.2 0.00 0.00 0.00 40 1014.1
20260503231336 18 272 1.6 3.2 0.00 0.00 0.00 40 1014.1
20260503230335 18 217 0.0 1.6 0.00 0.00 0.00 39 1014.2
20260503225335 18 52 0.0 1.6 0.00 0.00 0.00 40 1014.3
20260503224335 18 273 1.6 12.9 0.00 0.00 0.00 38 1014.3
20260503223335 18 242 0.0 11.3 0.00 0.00 0.00 36 1014.4
20260503222335 18 306 4.8 3.2 0.00 0.00 0.00 37 1014.5
20260503221334 18 191 1.6 9.7 0.00 0.00 0.00 38 1014.6
20260503220334 18 252 1.6 3.2 0.00 0.00 0.00 37 1014.6
20260503215334 18 247 0.0 9.7 0.00 0.00 0.00 41 1014.7
20260503214334 18 288 11.3 4.8 0.00 0.00 0.00 39 1014.7
20260503213334 18 18 0.0 9.7 0.00 0.00 0.00 41 1014.8
20260503212333 18 277 6.4 9.7 0.00 0.00 0.00 40 1014.9
20260503211333 18 280 9.7 12.9 0.00 0.00 0.00 39 1015.0
20260503210339 18 283 4.8 6.4 0.00 0.00 0.00 40 1015.0
20260503205338 18 346 1.6 12.9 0.00 0.00 0.00 41 1015.1
20260503204337 18 262 3.2 9.7 0.00 0.00 0.00 41 1015.2
20260503203337 17 79 3.2 9.7 0.00 0.00 0.00 40 1015.4
20260503202418 18 227 1.6 12.9 0.00 0.00 0.00 40 1015.7
20260503202337 18 227 1.6 12.9 0.00 0.00 0.00 40 1015.7
20260503201337 18 271 4.8 6.4 0.00 0.00 0.00 38 1015.8
20260503200336 18 281 9.7 9.7 0.00 0.00 0.00 39 1016.0
20260503195337 18 321 3.2 11.3 0.00 0.00 0.00 40 1016.1
20260503194336 18 240 0.0 3.2 0.00 0.00 0.00 42 1016.2
20260503193417 18 289 0.0 9.7 0.00 0.00 0.00 40 1016.4
20260503193336 18 289 0.0 9.7 0.00 0.00 0.00 40 1016.4
20260503192336 18 292 16.1 11.3 0.00 0.00 0.00 42 1016.4
20260503191336 17 271 0.0 8.0 0.00 0.00 0.00 43 1016.5
20260503190335 17 301 4.8 6.4 0.00 0.00 0.00 41 1016.6
20260503185335 17 345 3.2 11.3 0.00 0.00 0.00 39 1016.8
20260503184335 17 349 0.0 11.3 0.00 0.00 0.00 40 1016.9
20260503183335 17 283 4.8 14.5 0.00 0.00 0.00 44 1017.0
20260503182335 17 274 1.6 12.9 0.00 0.00 0.00 43 1017.2
20260503181454 17 38 3.2 3.2 0.00 0.00 0.00 42 1017.3
20260503181335 17 38 3.2 3.2 0.00 0.00 0.00 42 1017.3
20260503180334 16 15 1.6 17.7 0.00 0.00 0.00 41 1017.4
20260503170333 15 345 1.6 3.2 0.00 0.00 0.00 44 1018.2